Location: Unspecified
(0.0000°N, 0.0000°E)
Time: 13:21:40
(UTC+00:00)

LightSail 2 - Pass Details

Date: 19 September 2019
Orbit: 699 x 732 km, 24.0° (Epoch: 17 September)

Event Time Altitude Azimuth Distance (km) Brightness Sun altitude
Exits shadow 04:49:58 - 323° (NW) 2,206 7.4 -16.0°
Reaches altitude 10° 04:50:40 10° 331° (NNW) 2,143 7.4 -15.8°
Maximum altitude 04:51:35 10° 342° (NNW) 2,113 7.4 -15.6°
Drops below altitude 10° 04:52:31 10° 352° (N) 2,144 7.6 -15.4°
Sets 04:57:19 0° 32° (NNE) 3,065 8.9 -14.2°
